Regional Weather Roundup
Issued by NWS

Home | Current Version | Previous Version | Text Only | Print | Product List | Glossary Off
Versions: 1 2 3 4 5 6 7 8 9 10 11 12 13 14 15 16 17 18 19 20 21 22 23 24 25 26 27 28 29 30 31 32 33 34 35 36 37 38 39 40 41 42 43 44 45 46 47 48 49 50

971
ASUS45 KCYS 261110
RWRWY

WYOMING REGIONAL WEATHER ROUNDUP
NATIONAL WEATHER SERVICE CHEYENNE WY
500 AM MDT FRI AUG 26 2016

NOTE:  "FAIR" INDICATES FEW OR NO CLOUDS BELOW 12,000 FEET
WITH NO SIGNIFICANT WEATHER AND/OR OBSTRUCTIONS TO VISIBILITY.

WYZ001-261200-
YELLOWSTONE NATIONAL PARK

CITY           SKY/WX    TMP DP  RH WIND       PRES   REMARKS
LK YELLOWSTONE   N/A     42  36  79 CALM      30.28S
W YELLOWSTONE  NOT AVBL

$$
WYZ002>013-054>058-071-098>099-261200-
NORTHERN WYOMING

CITY           SKY/WX    TMP DP  RH WIND       PRES   REMARKS
JACKSON        MOCLDY    43  34  70 CALM      30.21R
CODY           FAIR      50  43  76 SW5       30.15F
GREYBULL       FAIR      52  48  86 N5        30.11F
WORLAND        FAIR      47  45  93 S7        30.12S
SHERIDAN       FAIR      51  43  74 CALM      30.11F
BUFFALO        FAIR      50  41  71 W6        30.13F
GILLETTE       FAIR      52  48  86 S13       30.12F
HULETT         FAIR      54  46  76 SW5       30.16S
NEWCASTLE      CLOUDY    52  48  87 E10       30.17F

$$
WYZ014>020-022>026-101>103-261200-
CENTRAL WYOMING

CITY           SKY/WX    TMP DP  RH WIND       PRES   REMARKS
BIG PINEY      FAIR      32  29  88 E5        30.24S WCI  27
PINEDALE       FAIR      30  28  93 NW6       30.24F WCI  24
DUBOIS         FAIR      36  32  87 NW12G17   30.23F WCI  27
LANDER         FAIR      45  39  79 W7        30.17F
RIVERTON       FAIR      46  45  96 W10       30.17F
CASPER         FAIR      47  45  93 W9        30.14F
DOUGLAS        FAIR      46  45  96 CALM      30.15F

$$
WYZ021-027>030-104>119-261200-
SOUTHERN WYOMING

CITY           SKY/WX    TMP DP  RH WIND       PRES   REMARKS
EVANSTON       FAIR      47  31  53 E9        30.20S
FORT BRIDGER   SUNNY     46  34  61 CALM      30.23F
ROCK SPRINGS   MOCLDY    47  37  68 S8        30.19F
DIXON          FAIR      42  34  72 NE3       30.25S
RAWLINS        FAIR      43  36  76 CALM      30.22F
SARATOGA       FAIR      39  37  93 SE6       30.24F WCI  35
LARAMIE        FAIR      47  40  76 N5        30.22S
CHEYENNE       CLOUDY    52  46  80 VRB5      30.19S
TORRINGTON     FAIR      53  50  89 W5        30.13F
PINE BLUFFS    CLOUDY    50  45  81 CALM      30.18F

$$




USA.gov is the U.S. government's official web portal to all federal, state and local government web resources and services.